Weather Roundup
Issued by NWS Springfield, MO

Home | Current Version | Previous Version | Text Only | Print | Product List | Glossary On
Versions: 1 2 3 4 5 6 7 8 9 10 11 12 13 14 15 16 17 18 19 20 21 22 23 24 25 26 27 28 29 30 31 32 33 34 35 36 37 38 39 40 41 42 43 44 45 46 47 48 49 50
000
NZUS99 KSGF 051107
HRRSGF

HOURLY WEATHER
NATIONAL WEATHER SERVICE SPRINGFIELD MO
600 AM CDT TUE MAY 05 2015

......SGF CWA......

CITY           SKY/WX    TMP DP  RH WIND       PRES   REMARKS
SPRINGFIELD    MOCLDY    62  55  77 SE9       30.14S
JOPLIN         PTCLDY    63  54  72 SE10      30.11S
WEST PLAINS    CLEAR     54  52  93 CALM      30.19R FOG
ROLLA          MOCLDY    60  55  83 S8        30.15R
OSAGE BEACH    CLOUDY    61  54  77 SE3       30.15R
BRANSON        PTCLDY    59  54  82 CALM      30.16S

......SURROUNDING SGF CWA......

CITY           SKY/WX    TMP DP  RH WIND       PRES   REMARKS
CHANUTE        FAIR      59  55  87 SE7       30.08S
PARSONS        PTCLDY    62  56  80 SE6       30.09S
COFFEYVILLE    PTCLDY    59  55  87 SE5       30.07F
EMPORIA        CLOUDY    60  57  89 SE9       30.06R
GROVE OK       PTCLDY    57  57 100 CALM      30.12S
ROGERS AR      CLEAR     59  56  89 E8        30.14S
SILOAM SPRINGS PTCLDY    57  48  72 E5        30.14R
HARRISON AR    CLEAR     55  54  96 S6        30.16S
NEAR YELLVILLE CLEAR     55  54  94 CALM      30.15S

......KANSAS AND MISSOURI......

CITY           SKY/WX    TMP DP  RH WIND       PRES   REMARKS
KANSAS CTY INT PTCLDY    60  59  96 E7        30.09R
DOWNTOWN KC    MOCLDY    63  58  83 CALM      30.08R
COLUMBIA       MOCLDY    62  55  77 S7        30.13R
SEDALIA        CLOUDY    63  57  81 S6        30.13R
ST JOSEPH      PTCLDY    58  57  97 SE3       30.08R FOG
ST LOUIS       MOCLDY    68  54  60 CALM      30.15R
SPIRIT OF STL  MOCLDY    60  55  83 CALM      30.14R
KIRKSVILLE     CLOUDY    57  57 100 CALM      30.12R FOG
WICHITA        MOCLDY    63  54  72 SE8       30.03S
TOPEKA         CLEAR     59  58  96 CALM      30.07R
OLATHE         MOCLDY    60  59  96 SE5       30.08S

......TENNESSEE......

CITY           SKY/WX    TMP DP  RH WIND       PRES   REMARKS
MEMPHIS        PTCLDY    67  55  65 S7        30.20R
NASHVILLE      PTCLDY    57  53  86 CALM      30.27R

......ARKANSAS.......

CITY           SKY/WX    TMP DP  RH WIND       PRES   REMARKS
FAYETTEVILLE   CLEAR     51  51 100 S3        30.14R
FT SMITH       CLOUDY    63  56  78 E3        30.11R
LITTLE ROCK    MOCLDY    66  58  75 CALM      30.16R

......OKLAHOMA.......

CITY           SKY/WX    TMP DP  RH WIND       PRES   REMARKS
TULSA          MOCLDY    60  55  83 SE7       30.05S
PONCA CITY     CLOUDY    61  55  81 SE10      30.03S
MCALESTER      MOCLDY    62  55  77 E6        30.07R
OKLAHOMA CITY  MOCLDY    61  54  77 SE12      30.01R

......IOWA............

CITY           SKY/WX    TMP DP  RH WIND       PRES   REMARKS
DES MOINES     CLOUDY    62  60  93 S5        30.08S FOG
QUAD CITIES    CLOUDY    58  57  97 E7        30.09R FOG

......ILLINOIS........

CITY           SKY/WX    TMP DP  RH WIND       PRES   REMARKS
QUINCY         CLOUDY    64  60  87 SE6       30.11R
CHICAGO        HVY RAIN  49  48  97 N8        30.22R FOG



USA.gov is the U.S. government's official web portal to all federal, state and local government web resources and services.